Regional Weather Roundup
Issued by NWS

Home | Current Version | Previous Version | Text Only | Print | Product List | Glossary On
Versions: 1 2 3 4 5 6 7 8 9 10 11 12 13 14 15 16 17 18 19 20 21 22 23 24 25 26 27 28 29 30 31 32 33 34 35 36 37 38 39 40 41 42 43 44 45 46 47 48 49 50
000
ASUS45 KCYS 251710
RWRWY

WYOMING REGIONAL WEATHER ROUNDUP
NATIONAL WEATHER SERVICE CHEYENNE WY
1100 AM MDT MON SEP 25 2017

NOTE:  "FAIR" INDICATES FEW OR NO CLOUDS BELOW 12,000 FEET
WITH NO SIGNIFICANT WEATHER AND/OR OBSTRUCTIONS TO VISIBILITY.

WYZ001-251800-
YELLOWSTONE NATIONAL PARK

CITY           SKY/WX    TMP DP  RH WIND       PRES   REMARKS
LK YELLOWSTONE NOT AVBL
W YELLOWSTONE  NOT AVBL

$$
WYZ002>013-054>058-071-098>099-251800-
NORTHERN WYOMING

CITY           SKY/WX    TMP DP  RH WIND       PRES   REMARKS
JACKSON        CLOUDY    40  36  86 S7        30.14S
CODY           FAIR      46  36  68 S7        30.12F
GREYBULL       CLOUDY    46  43  89 E7        30.11F
WORLAND        CLOUDY    47  39  74 CALM      30.11F
SHERIDAN       CLOUDY    47  42  83 SW3       30.12S
BUFFALO        CLOUDY    43  38  82 MISG      30.12S
GILLETTE       CLOUDY    43  39  86 CALM      30.12S
HULETT         CLOUDY    43  39  87 CALM      30.13S
NEWCASTLE      CLOUDY    43  41  93 SE9       30.15R

$$
WYZ014>020-022>026-101>103-251800-
CENTRAL WYOMING

CITY           SKY/WX    TMP DP  RH WIND       PRES   REMARKS
BIG PINEY      CLOUDY    37  35  92 NW5       30.15S WCI  33
PINEDALE       CLOUDY    36  32  87 W6        30.15S WCI  31
DUBOIS         FAIR      36  32  87 N3        30.11F
LANDER         CLOUDY    44  35  70 E8        30.11F
RIVERTON       CLOUDY    41  38  89 SW6       30.12F
CASPER         LGT RAIN  39  37  92 SW7       30.12S FOG     WCI  34
DOUGLAS        CLOUDY    45  39  79 SW3       30.12S

$$
WYZ021-027>030-104>119-251800-
SOUTHERN WYOMING

CITY           SKY/WX    TMP DP  RH WIND       PRES   REMARKS
EVANSTON       CLOUDY    39  32  76 CALM      30.16F
FORT BRIDGER   FAIR      43  35  73 W10       30.19S
ROCK SPRINGS   PTSUNNY   40  33  76 W7        30.14F
DIXON          CLOUDY    42  32  69 W5        30.16S
RAWLINS        CLOUDY    39  33  79 SW12      30.13R WCI  32
SARATOGA       CLOUDY    41  32  70 W8G17     30.14S
LARAMIE        FAIR      41  34  76 VRB3      30.11F
CHEYENNE       PTSUNNY   44  38  79 CALM      30.12S
TORRINGTON     CLOUDY    46  40  79 CALM      30.12S
PINE BLUFFS    CLOUDY    43  39  87 CALM      30.13F

$$



USA.gov is the U.S. government's official web portal to all federal, state and local government web resources and services.